[[{"header":{"parameterUnit":"m.s-1","parameterCategory":1,"la1":30.2991,"la2":30.254,"lo1":-89.0895,"lo2":-89.0444,"dy":0.0017,"dx":0.0017,"nx":28,"ny":28,"refTime":"2024-12-13T09:00:00:Z","depth":0,"parameterNumber":2,"parameterNumberName":"U-component_of_WINDS"},"data":[0,0,0,0,0,0,0,0,0,0,0,0,0,0,0,0,0,0,0,0,0,0,0,0,0,0,0,0,0,0,0,0,0,0,0,0,0,0,0,0,0,0,0,0,0,0,0,0,0,0,0,0,0,0,0,0,0,0,-4.1701,-4.1701,0,-4.1772,-4.1772,-4.1773,-4.1655,-4.1651,-4.1647,-4.1643,-4.1719,-4.1724,-4.173,0,0,0,0,0,0,0,0,0,0,0,0,0,-4.1464,-4.1469,-4.17,-4.1701,-4.1702,-4.1771,-4.1772,-4.1773,-4.1656,-4.1651,-4.1646,-4.1641,-4.1717,-4.1723,-4.173,0,0,0,0,0,0,0,0,0,0,0,0,0,-4.1555,-4.1471,-4.17,-4.1652,-4.1648,-4.1771,-4.1773,-4.1774,-4.1657,-4.1651,-4.1645,-4.1639,-4.1714,-4.1723,-4.1731,-4.1906,0,0,-4.1758,-4.1762,0,0,0,0,0,0,0,0,-4.155,-4.1563,-4.1658,-4.1655,-4.1651,-4.1698,-4.1717,-4.1818,-4.1658,-4.1654,-4.1643,-4.1636,-4.1717,-4.1725,-4.1752,-4.191,-4.1913,-4.1759,-4.1764,-4.1768,-4.177,0,0,0,0,0,0,0,-4.1543,-4.156,-4.1729,-4.166,-4.1656,-4.1627,-4.1633,-4.1735,-4.1718,-4.1653,-4.1645,-4.1655,-4.1714,-4.1744,-4.1753,-4.1914,-4.1758,-4.1766,-4.1771,-4.1775,-4.2219,-4.2225,0,0,0,0,0,0,-4.1543,-4.1555,-4.1726,-4.1731,-4.1584,-4.1636,-4.1643,-4.1689,-4.1717,-4.1715,-4.166,-4.1649,-4.1732,-4.1743,-4.1755,-4.1962,-4.1768,-4.1776,-4.1781,-4.2212,-4.222,-4.2228,0,0,0,0,0,0,-4.1538,-4.1559,-4.1723,-4.1641,-4.1659,-4.1647,-4.17,-4.1694,-4.1723,-4.1722,-4.1718,-4.1694,-4.1727,-4.1743,-4.1869,-4.1963,-4.178,-4.1787,-4.2205,-4.2215,-4.2224,-4.2377,0,0,0,0,0,0,-4.1532,-4.1558,-4.1624,-4.1643,-4.1664,-4.1837,-4.1705,-4.17,-4.1738,-4.1725,-4.1752,-4.1751,-4.1724,-4.1857,-4.1878,-4.1971,-4.1794,-4.2196,-4.2209,-4.2221,-4.2364,-4.2391,-4.2414,0,0,0,0,0,-4.1524,-4.1665,-4.1628,-4.165,-4.1746,-4.1842,-4.1855,-4.182,-4.1746,-4.1813,-4.1812,-4.175,-4.1949,-4.1871,-4.1893,-4.1991,-4.219,-4.2206,-4.222,-4.2352,-4.2386,-4.2414,0,0,0,0,0,0,-4.1659,-4.1667,-4.1626,-4.1777,-4.181,-4.1822,-4.1905,-4.1856,-4.1911,-4.1896,-4.1851,-4.1858,-4.1995,-4.2005,-4.1918,-4.2161,-4.2057,-4.2077,-4.215,-4.2182,-4.2207,-4.2202,-4.1801,0,0,0,0,0,-4.1706,-4.1783,-4.1785,-4.1919,-4.1937,-4.1919,-4.1959,-4.1929,-4.1962,-4.1975,-4.1983,-4.2018,-4.2087,-4.2135,-4.2199,-4.2364,-4.2368,-4.2442,-4.2467,-4.2488,-4.2507,-4.2595,-4.2628,-4.2276,-4.2276,-4.2276,0,0,-4.1805,-4.1818,-4.187,-4.1946,-4.1968,-4.2049,-4.1931,-4.2022,-4.2082,-4.1989,-4.2109,-4.2117,-4.2152,-4.2299,-4.2363,-4.2311,-4.2604,-4.2507,-4.2523,-4.2531,-4.2613,-4.2647,-4.2676,-4.2286,-4.2285,-4.2283,0,0,-4.2026,-4.2044,-4.2157,-4.2181,-4.2215,-4.2202,-4.2229,-4.2249,-4.225,-4.2369,-4.2301,-4.2372,-4.2493,-4.2521,-4.2552,-4.2783,-4.2729,-4.2805,-4.2938,-4.3025,-4.3052,-4.3077,-4.316,-4.3191,-4.2823,-4.2823,-4.2823,0,-4.2145,-4.2264,-4.2222,-4.2317,-4.2353,-4.2271,-4.2386,-4.2411,-4.2466,-4.2493,-4.2433,-4.2583,-4.2601,-4.2754,-4.281,-4.2837,-4.2867,-4.2803,-4.3052,-4.3076,-4.3098,-4.3177,-4.3209,-4.2832,-4.2831,-4.283,-4.283,0,-4.2409,-4.2492,-4.258,-4.2633,-4.2678,-4.2783,-4.2757,-4.2808,-4.2774,-4.2767,-4.289,-4.2909,-4.2975,-4.3009,-4.2977,-4.3157,-4.3123,-4.3059,-4.2953,-4.3141,-4.3215,-4.3245,-4.2846,-4.2842,-4.2839,-4.2837,0,0,-4.272,-4.2747,-4.278,-4.2803,-4.2834,-4.2898,-4.2999,-4.3063,-4.3109,-4.3148,-4.3232,-4.3336,-4.3276,-4.3311,-4.328,-4.3356,-4.354,-4.3282,-4.3282,-4.3331,-4.374,-4.379,-4.3826,-4.3503,-4.3508,-4.3513,-4.3738,0,-4.2941,-4.3115,-4.3079,-4.325,-4.3326,-4.3249,-4.3337,-4.3366,-4.3362,-4.3427,-4.3422,-4.3497,-4.3412,-4.3432,-4.3503,-4.3502,-4.3622,-4.3485,-4.3582,-4.3586,-4.3578,-4.3864,-4.3918,-4.4129,-4.3766,-4.3771,-4.3775,0,-4.3223,-4.3272,-4.3451,-4.3469,-4.35,-4.358,-4.3635,-4.3698,-4.3729,-4.3721,-4.3759,-4.3714,-4.3815,-4.3707,-4.3846,-4.3754,-4.3791,-4.3796,-4.3804,-4.3813,-4.3693,-4.3883,-4.4196,-4.4228,-4.3819,-4.3816,-4.3813,0,-4.3433,-4.3544,-4.3665,-4.3687,-4.3711,-4.3769,-4.3782,-4.3807,-4.3848,-4.3897,-4.3923,-4.3983,-4.4017,-4.4065,-4.4038,-4.3961,-4.4182,-4.4071,-4.4179,-4.418,-4.4231,-4.4228,-4.4556,-4.4252,-4.4251,-4.4251,-4.425,0,-4.3685,-4.3798,-4.376,-4.3835,-4.3958,-4.3916,-4.404,-4.4043,-4.4066,-4.4141,-4.4077,-4.4148,-4.4107,-4.4176,-4.4155,-4.4274,-4.4289,-4.4286,-4.4279,-4.4293,-4.4293,-4.4318,-4.4303,-4.4259,-4.4257,-4.4256,-4.4254,0,-4.3943,-4.3921,-4.4048,-4.406,-4.4066,-4.4157,-4.4167,-4.4237,-4.4227,-4.4322,-4.4342,-4.4327,-4.4405,-4.4381,-4.4465,-4.4451,-4.4602,-4.4576,-4.4592,-4.4586,-4.4695,-4.4686,-4.5051,-4.5097,-4.4763,-4.4766,-4.4769,0,-4.4106,-4.419,-4.4211,-4.4256,-4.4273,-4.4346,-4.4387,-4.4348,-4.4394,-4.4435,-4.4501,-4.4572,-4.4627,-4.4754,-4.4751,-4.4815,-4.479,-4.4914,-4.48,-4.4811,-4.4794,-4.479,-4.4799,-4.4938,-4.4941,-4.4945,-4.4947,0,-4.4398,-4.4383,-4.4444,-4.4502,-4.4553,-4.4597,-4.4635,-4.4675,-4.4639,-4.4694,-4.4771,-4.4814,-4.4898,-4.497,-4.5028,-4.5041,-4.499,-4.4983,-4.5011,-4.5027,-4.5033,-4.5032,-4.4656,-4.4975,-4.4972,-4.497,-4.4969,-4.4968,-4.4614,-4.4686,-4.4711,-4.4782,-4.4806,-4.4843,-4.4909,-4.4907,-4.4971,-4.5036,-4.5009,-4.5099,-4.5127,-4.5199,-4.522,-4.529,-4.5243,-4.5284,-4.5295,-4.5306,-4.5321,-4.502,-4.53,-4.5299,-4.5299,-4.5298,-4.5297,0,-4.4904,-4.4916,-4.4981,-4.5037,-4.5092,-4.5036,-4.5075,-4.5126,-4.5205,-4.5235,-4.5291,-4.538,-4.5449,-4.5451,-4.5516,-4.5571,-4.5549,-4.559,-4.5586,-4.5591,-4.5358,-4.5328,-4.5607,-4.5607,-4.5607,-4.5607,-4.5607,-4.5607,-4.5062,-4.518,-4.5169,-4.5298,-4.531,-4.5396,-4.5424,-4.5458,-4.5482,-4.5584,-4.5641,-4.5641,-4.5661,-4.5726,-4.5787,-4.5786,-4.5814,-4.5864,-4.5854,-4.5638,-4.5607,-4.5578,-4.5549,-4.587,-4.587,-4.6081,-4.6083,-4.6084]},{"header":{"parameterUnit":"m.s-1","parameterCategory":1,"la1":30.2991,"la2":30.254,"lo1":-89.0895,"lo2":-89.0444,"dy":0.0017,"dx":0.0017,"nx":28,"ny":28,"refTime":"2024-12-13T09:00:00:Z","depth":0,"parameterNumber":3,"parameterNumberName":"V-component_of_WINDS"},"data":[0,0,0,0,0,0,0,0,0,0,0,0,0,0,0,0,0,0,0,0,0,0,0,0,0,0,0,0,0,0,0,0,0,0,0,0,0,0,0,0,0,0,0,0,0,0,0,0,0,0,0,0,0,0,0,0,0,0,-4.0256,-4.0256,0,-4.0264,-4.0264,-4.0264,-4.018,-4.0178,-4.0175,-4.0173,-4.0181,-4.0183,-4.0185,0,0,0,0,0,0,0,0,0,0,0,0,0,-4.0167,-4.017,-4.0256,-4.0256,-4.0256,-4.0264,-4.0264,-4.0264,-4.018,-4.0177,-4.0175,-4.0172,-4.018,-4.0183,-4.0186,0,0,0,0,0,0,0,0,0,0,0,0,0,-4.0194,-4.017,-4.0256,-4.0216,-4.0212,-4.0264,-4.0264,-4.0264,-4.0181,-4.0177,-4.0174,-4.0171,-4.0179,-4.0182,-4.0186,-4.0277,0,0,-4.0197,-4.0198,0,0,0,0,0,0,0,0,-4.0192,-4.0197,-4.0221,-4.0218,-4.0214,-4.0217,-4.0235,-4.0268,-4.0182,-4.0193,-4.0173,-4.0169,-4.0196,-4.0198,-4.0207,-4.0277,-4.0278,-4.0197,-4.0199,-4.0201,-4.0202,0,0,0,0,0,0,0,-4.0191,-4.0196,-4.0259,-4.0222,-4.0218,-4.0196,-4.0196,-4.0241,-4.0214,-4.0191,-4.0185,-4.0187,-4.0193,-4.0203,-4.0206,-4.0278,-4.0197,-4.02,-4.0202,-4.0204,-4.0422,-4.0425,0,0,0,0,0,0,-4.0194,-4.0195,-4.0259,-4.0259,-4.0195,-4.0201,-4.0201,-4.022,-4.0213,-4.0208,-4.019,-4.0183,-4.0199,-4.0202,-4.0206,-4.0311,-4.0201,-4.0204,-4.0206,-4.0418,-4.0422,-4.0426,0,0,0,0,0,0,-4.0193,-4.0201,-4.0259,-4.0226,-4.0231,-4.0206,-4.0228,-4.0222,-4.0232,-4.0212,-4.0206,-4.0206,-4.0196,-4.0201,-4.026,-4.031,-4.0206,-4.0209,-4.0414,-4.0419,-4.0424,-4.0523,0,0,0,0,0,0,-4.0191,-4.0201,-4.0236,-4.0227,-4.0233,-4.0313,-4.0231,-4.0225,-4.0238,-4.023,-4.0225,-4.0221,-4.0194,-4.0255,-4.0263,-4.0313,-4.0211,-4.0409,-4.0416,-4.0423,-4.0515,-4.0531,-4.0545,0,0,0,0,0,-4.0188,-4.0264,-4.0238,-4.0246,-4.0277,-4.0316,-4.0319,-4.0287,-4.0243,-4.0277,-4.0264,-4.0221,-4.0303,-4.0261,-4.027,-4.0322,-4.0406,-4.0414,-4.0422,-4.0508,-4.0528,-4.0544,0,0,0,0,0,0,-4.0279,-4.0262,-4.0233,-4.0309,-4.0314,-4.0302,-4.0344,-4.0309,-4.0327,-4.0318,-4.0276,-4.0276,-4.0341,-4.0337,-4.0291,-4.0409,-4.0347,-4.0357,-4.0409,-4.0428,-4.0442,-4.0442,-4.0214,0,0,0,0,0,-4.0308,-4.0342,-4.0324,-4.0393,-4.0397,-4.037,-4.0386,-4.036,-4.0365,-4.0367,-4.0358,-4.0363,-4.039,-4.0408,-4.0432,-4.0514,-4.0511,-4.0554,-4.0568,-4.0581,-4.059,-4.0632,-4.065,-4.0453,-4.0453,-4.0453,0,0,-4.0368,-4.0363,-4.0387,-4.0411,-4.0412,-4.0447,-4.0373,-4.0414,-4.0439,-4.0373,-4.0427,-4.0421,-4.0424,-4.0494,-4.0525,-4.0493,-4.0644,-4.0591,-4.0601,-4.0604,-4.0642,-4.0661,-4.0677,-4.0459,-4.0458,-4.0457,0,0,-4.0496,-4.0496,-4.0551,-4.0554,-4.0557,-4.0538,-4.0552,-4.0544,-4.0537,-4.0591,-4.0542,-4.0571,-4.0618,-4.0622,-4.0631,-4.0758,-4.0719,-4.0766,-4.0844,-4.0885,-4.0901,-4.0914,-4.0959,-4.0975,-4.0776,-4.0776,-4.0776,0,-4.057,-4.0622,-4.0585,-4.0628,-4.064,-4.0581,-4.0636,-4.0641,-4.0651,-4.066,-4.0625,-4.0682,-4.068,-4.0749,-4.078,-4.0789,-4.0803,-4.0767,-4.0902,-4.0915,-4.0927,-4.0969,-4.0986,-4.0782,-4.0781,-4.0781,-4.078,0,-4.0712,-4.0748,-4.0793,-4.0804,-4.082,-4.087,-4.084,-4.0861,-4.0833,-4.0818,-4.0873,-4.0869,-4.089,-4.0904,-4.0878,-4.097,-4.095,-4.0909,-4.0845,-4.0952,-4.0991,-4.1006,-4.079,-4.0788,-4.0786,-4.0785,0,0,-4.0899,-4.0887,-4.0904,-4.0908,-4.0906,-4.0933,-4.0979,-4.0999,-4.1017,-4.1026,-4.1064,-4.1104,-4.1065,-4.1075,-4.1048,-4.1085,-4.1184,-4.1038,-4.1038,-4.1065,-4.1284,-4.1315,-4.1334,-4.1158,-4.1161,-4.1163,-4.1283,0,-4.1022,-4.11,-4.1068,-4.1149,-4.1181,-4.1125,-4.1164,-4.1167,-4.1154,-4.1179,-4.1164,-4.1194,-4.1141,-4.1146,-4.1179,-4.1165,-4.1227,-4.1156,-4.1192,-4.1194,-4.1193,-4.1354,-4.1387,-4.1501,-4.1298,-4.1301,-4.1303,0,-4.1177,-4.1191,-4.1276,-4.1266,-4.1278,-4.1315,-4.133,-4.1355,-4.1356,-4.1344,-4.1354,-4.1319,-4.1363,-4.13,-4.1359,-4.1311,-4.1324,-4.1319,-4.1322,-4.1324,-4.1255,-4.136,-4.1536,-4.1553,-4.1326,-4.1324,-4.1323,0,-4.1303,-4.1344,-4.1399,-4.1404,-4.1394,-4.1421,-4.1419,-4.1416,-4.143,-4.1443,-4.1451,-4.147,-4.148,-4.1495,-4.1465,-4.1422,-4.1528,-4.1463,-4.1519,-4.152,-4.1544,-4.1543,-4.1724,-4.1553,-4.1553,-4.1552,-4.1552,0,-4.1444,-4.1498,-4.1455,-4.1489,-4.1547,-4.1509,-4.1567,-4.1558,-4.1556,-4.1587,-4.1539,-4.1569,-4.1529,-4.1554,-4.1532,-4.1584,-4.1589,-4.158,-4.1573,-4.1584,-4.1585,-4.1592,-4.1583,-4.1557,-4.1556,-4.1555,-4.1554,0,-4.1596,-4.1569,-4.1626,-4.1611,-4.1609,-4.1652,-4.164,-4.1671,-4.1653,-4.1693,-4.17,-4.1674,-4.1701,-4.1673,-4.1699,-4.1684,-4.1754,-4.1736,-4.1753,-4.1748,-4.1805,-4.18,-4.1997,-4.202,-4.1835,-4.1837,-4.1838,0,-4.1687,-4.1727,-4.1717,-4.1734,-4.1734,-4.1762,-4.1775,-4.1738,-4.1754,-4.1758,-4.1788,-4.1811,-4.1828,-4.1875,-4.1858,-4.1877,-4.1859,-4.1926,-4.1862,-4.1871,-4.1859,-4.1857,-4.186,-4.194,-4.1942,-4.1944,-4.1945,0,-4.1852,-4.1837,-4.1858,-4.1874,-4.1891,-4.1902,-4.191,-4.1926,-4.1888,-4.1908,-4.1935,-4.1948,-4.1974,-4.1998,-4.2012,-4.2009,-4.1971,-4.1966,-4.198,-4.1991,-4.1999,-4.1995,-4.1789,-4.1961,-4.196,-4.1959,-4.1958,-4.1957,-4.1976,-4.2008,-4.2005,-4.203,-4.2031,-4.2039,-4.2066,-4.2052,-4.2074,-4.2092,-4.2069,-4.2103,-4.2102,-4.2117,-4.2118,-4.2143,-4.2114,-4.2135,-4.214,-4.2145,-4.2154,-4.1996,-4.2146,-4.2145,-4.2145,-4.2144,-4.2144,0,-4.2138,-4.2133,-4.2156,-4.2167,-4.2186,-4.2148,-4.2154,-4.2172,-4.2202,-4.2204,-4.2222,-4.2252,-4.2275,-4.2259,-4.2278,-4.2301,-4.2284,-4.2308,-4.2305,-4.2305,-4.2179,-4.2164,-4.2321,-4.2321,-4.2321,-4.2321,-4.2321,-4.2321,-4.2225,-4.2276,-4.226,-4.2312,-4.2306,-4.2338,-4.2345,-4.2351,-4.2352,-4.2389,-4.2407,-4.2396,-4.2391,-4.2409,-4.2428,-4.2422,-4.2431,-4.2461,-4.245,-4.2332,-4.2314,-4.2298,-4.2284,-4.2463,-4.2463,-4.2574,-4.2575,-4.2576]}]]